Wind_Speed
5 4 3 4 2 4 4 7 3 3 4 3 24 7 6 4 4 4 19 25 20 28 31 31 29 27 24 21 18 16 15 13 13 15 14 15 14 15 15 16 15 13 12 11 10 10 10 10 11
5 6 6 3 4 2 6 5 9 6 10 15 14 4 3 4 3 9 23 21 19 28 31 32 30 28 25 22 19 16 14 12 11 13 14 15 16 16 16 16 14 11 11 10 11 10 10 10 11
5 10 5 4 4 7 6 4 4 10 14 15 7 6 4 4 6 22 14 19 24 30 30 32 31 29 26 23 20 17 14 12 10 11 13 14 15 16 16 15 13 11 9 9 10 10 9 9 10
5 6 2 4 8 8 7 3 4 11 26 8 2 5 5 9 17 16 20 20 26 30 31 32 30 28 25 22 20 17 15 12 10 9 11 12 14 15 15 14 12 10 8 9 10 10 10 10 11
8 2 2 3 7 7 2 4 4 7 8 20 11 3 5 13 11 12 17 19 26 30 29 30 29 26 24 22 20 18 15 13 10 9 9 11 13 13 13 12 11 9 8 8 10 11 11 10 12
5 3 2 7 5 6 8 14 2 6 19 30 7 10 12 18 12 12 16 18 25 21 27 29 28 25 23 22 20 18 16 14 12 10 9 11 12 12 11 10 9 8 7 7 9 11 12 11 12
5 3 5 4 6 5 10 5 4 6 10 20 21 9 6 19 17 15 19 20 22 22 26 29 28 26 23 22 20 18 16 15 13 10 8 9 10 11 12 10 8 6 5 6 7 9 11 11 11
6 4 3 5 3 7 5 3 9 10 19 23 4 6 8 26 20 21 22 24 24 25 27 28 28 26 25 23 20 19 18 16 14 12 9 8 7 9 10 10 9 7 5 5 6 7 8 10 10
7 1 5 6 8 8 2 4 4 13 15 12 5 9 21 31 24 25 26 27 25 23 25 27 26 26 24 22 20 19 18 17 15 13 10 8 7 7 9 9 9 8 7 7 7 7 8 9 10
6 5 10 7 6 6 1 4 13 12 18 7 11 7 21 30 28 26 26 27 26 24 28 29 27 25 23 22 20 19 19 18 17 14 12 10 9 8 7 9 9 8 7 7 7 7 8 10 10
8 7 6 5 15 19 4 9 19 7 7 5 5 8 21 24 25 24 24 27 22 26 27 28 26 25 25 23 19 19 19 19 18 17 14 12 11 9 9 9 10 10 8 6 5 5 7 8 9
4 8 12 9 20 10 4 7 5 13 21 21 13 4 12 20 22 24 25 27 25 24 24 26 24 26 24 20 18 17 18 19 20 19 16 15 12 10 9 9 9 10 8 5 3 3 6 8 9
4 4 10 19 21 22 28 13 14 24 31 28 23 8 9 10 15 21 24 26 28 28 29 25 23 25 23 22 22 19 17 21 20 18 15 15 12 10 9 9 7 7 8 6 3 6 6 7 10
6 21 24 19 21 17 11 18 14 19 29 26 24 16 11 12 13 12 16 23 28 31 29 28 28 26 24 23 28 24 29 24 20 19 17 13 11 9 10 9 9 8 7 8 7 8 10 10 13
20 9 9 8 17 10 16 20 12 24 29 29 28 19 19 14 15 17 16 16 17 23 24 26 24 24 23 25 27 29 26 24 19 18 15 13 13 12 10 9 7 9 10 11 11 13 14 16 17
3 8 14 6 9 11 14 19 7 15 26 26 24 27 25 21 21 18 18 18 21 22 24 27 23 25 26 26 30 28 25 17 18 19 17 15 15 12 8 8 9 9 12 13 13 17 20 21 21
5 4 5 4 11 7 12 3 11 21 24 27 26 22 29 26 25 25 23 23 22 19 24 28 26 29 30 29 30 27 21 20 20 21 16 11 13 12 9 7 11 14 14 19 20 20 21 22 23
8 5 5 6 6 11 13 6 9 17 17 23 28 30 28 28 28 29 30 28 23 22 29 34 32 31 33 30 29 25 22 20 17 15 10 10 9 11 9 12 13 15 19 16 19 19 18 18 22
5 12 7 5 7 7 7 6 10 16 14 13 23 26 28 28 27 27 27 24 24 28 34 38 34 31 28 27 23 21 23 17 11 10 13 10 9 11 11 11 12 16 14 12 14 15 17 19 17
15 8 6 4 5 5 7 11 10 10 8 17 26 30 30 32 27 23 22 25 27 31 34 34 30 26 22 21 22 19 16 11 9 10 10 9 9 9 10 12 12 13 13 12 15 16 17 18 20
21 18 5 5 0 3 3 7 7 9 11 21 23 30 31 28 29 25 24 27 32 35 33 31 28 21 22 23 20 20 15 15 15 15 14 14 13 11 11 12 14 13 14 14 14 15 15 19 19
20 11 9 6 2 4 6 5 6 8 9 7 17 22 20 18 22 25 30 35 37 32 33 31 21 23 24 22 21 17 18 18 18 19 16 14 13 12 13 11 10 11 12 14 16 17 18 19 19
12 13 12 7 4 1 7 1 7 4 4 4 6 14 18 23 27 30 35 39 38 37 34 29 30 26 22 21 19 20 22 21 20 17 14 13 12 10 10 9 9 10 11 13 15 15 17 20 22
10 8 4 3 4 8 7 8 5 3 7 4 6 15 22 26 27 30 33 36 37 32 31 28 22 22 20 21 21 21 20 20 18 16 14 12 11 11 9 10 10 11 13 15 16 18 19 21 23
9 10 2 3 4 11 9 6 7 6 6 7 13 17 27 30 31 30 31 32 29 28 28 25 24 23 22 20 18 18 18 17 15 13 11 10 9 10 11 12 13 15 17 19 21 23 24 26 28
11 7 5 6 5 4 8 6 5 7 5 14 25 28 31 37 39 35 31 22 26 23 20 20 19 22 17 17 17 17 15 13 11 10 8 8 9 11 12 13 14 16 18 20 22 24 25 27 28
9 12 10 4 2 3 4 3 4 6 7 13 21 25 25 32 37 35 33 31 25 25 16 17 17 17 15 14 14 13 12 10 8 6 5 5 6 7 10 12 15 17 19 21 21 21 22 22 23
10 8 8 5 7 4 3 5 6 3 6 7 12 18 22 32 36 38 36 32 30 29 25 18 18 17 15 13 11 9 7 5 3 2 3 5 7 9 11 13 16 17 18 19 20 22 23 24 25
9 12 6 7 5 7 4 5 2 5 6 11 7 17 26 32 41 38 35 33 29 30 26 20 16 14 12 9 7 5 3 1 2 4 6 8 9 10 12 15 16 18 19 21 22 24 25 25 25
6 10 13 5 4 1 4 3 3 5 3 13 18 22 27 35 38 35 36 34 31 28 22 15 14 10 8 6 4 2 2 4 6 7 8 9 10 12 15 17 17 20 22 23 23 23 21 23 24
Wind_Direction
238 230 192 167 69 66 253 252 257 329 294 330 323 217 166 283 172 208 152 170 172 173 171 174 173 173 174 172 167 162 155 152 153 159 160 161 159 158 159 157 155 152 146 142 142 141 140 138 133
189 185 175 154 117 155 256 226 236 241 252 320 2 28 21 253 246 160 156 174 178 176 174 174 174 176 176 174 171 167 158 150 150 155 159 160 161 160 160 160 158 153 147 146 145 146 147 141 139
175 174 166 149 160 211 225 224 189 276 304 314 326 349 228 215 210 159 166 168 173 179 178 176 175 178 178 175 173 170 165 156 151 154 160 160 161 160 163 164 163 159 153 149 149 151 153 150 149
169 168 139 132 218 257 212 144 17 323 314 314 358 287 273 172 155 165 171 173 170 179 179 178 178 179 178 176 175 174 172 167 157 154 160 161 162 163 167 170 173 169 166 159 156 156 159 159 159
181 187 141 228 241 257 230 252 289 289 291 290 315 226 258 208 197 192 172 175 173 179 180 180 181 181 179 180 178 178 176 172 165 159 159 166 166 167 170 171 172 172 172 169 166 164 165 168 170
177 151 111 224 233 275 295 260 270 241 280 282 285 229 208 209 194 180 177 172 174 181 183 182 182 184 184 184 185 184 181 181 179 172 168 172 172 173 173 175 176 177 181 181 176 173 172 174 180
147 104 218 205 250 269 252 290 214 255 283 281 250 153 207 208 191 184 179 167 172 183 188 186 184 184 186 189 189 188 187 188 189 186 180 176 182 183 182 182 185 186 189 188 185 184 181 182 187
199 124 201 219 202 278 259 261 265 307 306 299 216 168 182 182 184 184 169 171 179 186 191 188 186 187 190 191 191 192 191 191 194 194 191 188 188 198 199 199 197 195 192 194 190 193 195 195 199
190 154 207 201 152 240 269 8 293 309 304 308 336 197 197 169 178 174 175 177 181 186 192 191 191 192 195 196 197 197 196 198 199 201 202 205 203 206 214 216 214 206 199 195 194 194 199 208 213
169 187 208 205 199 247 276 290 307 325 326 315 26 120 167 170 172 178 185 188 184 186 187 189 192 193 195 199 200 200 203 205 208 212 217 220 220 219 222 226 228 224 218 215 214 212 214 219 221
211 232 170 229 235 247 234 284 280 275 300 302 360 94 147 173 177 189 196 201 201 191 190 192 193 197 199 202 204 206 209 213 216 219 224 225 224 226 227 228 228 228 228 236 248 250 257 262 265
231 202 207 223 242 265 228 263 267 266 273 282 294 288 180 168 193 199 207 215 200 205 205 193 197 204 203 200 204 212 216 219 221 223 223 227 226 230 235 232 222 219 217 213 226 266 270 271 270
234 246 231 239 245 256 267 241 257 270 275 280 280 255 206 192 192 192 202 205 210 216 207 204 204 201 199 203 192 220 224 231 229 230 229 236 233 225 224 217 212 205 195 191 227 258 266 252 250
213 225 244 249 257 255 259 267 238 262 271 273 279 256 229 217 205 200 196 198 204 211 214 210 207 216 218 221 224 216 212 218 220 229 234 225 231 226 202 197 204 202 203 216 227 238 237 241 242
250 274 282 231 232 237 250 273 235 251 261 263 267 254 265 240 222 236 243 215 204 199 208 214 214 208 210 214 234 213 213 215 217 221 225 204 196 203 189 197 205 228 240 245 257 264 263 268 272
236 206 242 180 198 237 177 248 284 246 247 240 243 257 254 244 252 242 235 221 199 199 208 205 211 211 210 220 217 215 214 211 210 205 193 195 210 216 219 219 237 255 251 255 263 270 267 269 271
253 233 211 250 198 217 185 223 253 240 227 231 233 246 247 249 248 252 245 231 213 210 204 199 202 207 218 216 218 215 224 220 209 212 211 210 224 237 240 247 266 269 264 274 264 267 272 276 286
210 206 213 197 207 204 235 226 254 251 232 230 242 245 244 252 251 250 248 231 215 208 205 195 199 210 217 218 222 226 209 218 226 220 207 220 245 249 248 250 263 269 273 275 263 270 274 283 295
216 225 193 189 222 194 231 245 254 254 249 236 248 249 249 247 260 246 236 220 205 199 205 200 200 209 214 218 209 204 209 210 203 222 230 232 216 226 237 239 259 254 271 280 276 285 288 293 296
231 241 223 233 242 170 256 262 248 253 247 234 244 251 251 246 242 228 214 206 195 193 196 199 202 204 202 205 191 205 215 215 207 212 206 207 211 215 243 255 259 257 262 271 281 284 283 282 290
218 227 186 188 353 232 293 288 285 276 247 243 250 250 252 245 230 213 201 195 191 196 194 196 195 193 187 186 204 212 209 195 198 211 225 217 222 245 251 249 255 254 257 266 267 273 274 274 278
218 195 189 194 196 219 158 272 277 263 246 201 217 216 217 202 194 199 191 190 195 191 194 192 173 195 190 193 192 193 207 209 213 220 217 220 238 254 261 254 251 254 257 258 260 262 261 262 267
220 174 190 181 213 85 233 277 269 300 235 178 187 153 163 170 184 183 187 189 187 191 193 189 185 186 186 189 199 206 208 214 221 224 219 222 243 237 232 243 253 253 257 257 258 260 258 258 263
152 169 167 162 120 240 198 174 261 213 215 175 93 115 135 154 161 168 177 178 180 181 178 180 186 192 198 217 212 219 222 217 209 207 216 221 218 218 232 241 245 251 255 259 262 263 264 265 267
189 144 167 197 189 235 161 169 219 227 233 179 137 137 141 149 148 151 149 154 168 178 176 186 192 196 199 208 212 206 200 191 193 197 202 203 216 233 245 254 262 269 273 274 274 273 274 273 274
198 165 150 179 171 176 128 201 231 218 283 163 150 145 143 145 150 147 145 158 140 143 145 164 178 175 169 164 166 167 169 179 184 184 192 214 234 247 258 265 272 278 281 283 282 282 281 280 279
189 188 179 87 339 93 185 210 9 53 58 123 134 143 145 137 143 140 138 137 131 129 129 140 143 142 145 143 147 152 158 168 179 191 212 235 254 272 282 289 292 293 295 296 298 297 296 294 291
181 164 165 211 188 183 282 168 172 142 136 143 142 138 136 137 138 136 133 128 129 124 127 128 131 134 134 138 138 141 143 150 161 198 272 291 299 298 303 308 309 311 311 311 309 308 306 302 300
180 209 200 160 157 172 142 251 283 170 175 148 124 135 138 140 141 137 135 135 132 129 125 127 125 126 122 118 115 119 126 126 305 302 304 314 315 318 320 313 313 315 317 316 313 312 308 305 303
153 196 216 186 196 141 145 250 85 81 168 117 116 130 133 139 140 140 141 140 138 127 128 136 135 131 121 116 112 92 359 329 321 315 319 317 317 318 317 318 318 321 321 317 312 310 307 303 304
Height
1500 1501 1502 1502 1514 1516 1518 1503 1486 1484 1480 1475 1474 1471 1470 1470 1471 1486 1470 1473 1475 1477 1480 1486 1490 1495 1499 1502 1504 1506 1506 1508 1509 1510 1512 1514 1516 1517 1519 1521 1522 1524 1526 1527 1529 1531 1532 1533 1533
1498 1500 1502 1501 1518 1527 1513 1490 1486 1481 1474 1476 1476 1474 1472 1472 1469 1467 1469 1472 1475 1478 1481 1484 1489 1494 1499 1502 1504 1507 1509 1510 1512 1513 1514 1515 1517 1518 1521 1523 1525 1527 1528 1529 1530 1532 1534 1535 1535
1497 1498 1500 1505 1515 1513 1506 1484 1482 1475 1476 1476 1477 1475 1475 1470 1468 1469 1470 1472 1474 1479 1483 1487 1488 1493 1498 1501 1505 1507 1510 1511 1513 1514 1515 1517 1518 1520 1522 1525 1526 1528 1530 1532 1532 1533 1535 1537 1538
1496 1499 1501 1507 1509 1492 1483 1479 1478 1475 1469 1472 1477 1477 1474 1468 1468 1469 1470 1472 1474 1479 1482 1487 1491 1494 1498 1502 1505 1508 1510 1512 1513 1515 1517 1518 1520 1521 1523 1525 1527 1529 1531 1532 1534 1535 1536 1538 1539
1495 1497 1504 1506 1498 1485 1477 1476 1478 1479 1477 1470 1473 1474 1474 1470 1468 1469 1472 1473 1475 1479 1483 1488 1493 1496 1498 1503 1505 1508 1511 1513 1515 1517 1518 1520 1521 1522 1524 1525 1527 1529 1531 1533 1534 1536 1538 1540 1541
1495 1495 1510 1508 1497 1483 1476 1473 1477 1478 1474 1468 1469 1468 1469 1470 1468 1469 1470 1473 1478 1482 1485 1487 1492 1497 1500 1502 1505 1508 1510 1513 1515 1516 1517 1519 1520 1523 1525 1527 1528 1530 1531 1533 1534 1536 1537 1539 1541
1492 1498 1502 1498 1492 1489 1476 1473 1474 1474 1471 1465 1462 1464 1466 1467 1468 1470 1471 1474 1477 1481 1486 1488 1492 1495 1499 1503 1505 1509 1511 1513 1516 1517 1519 1520 1521 1523 1524 1527 1529 1530 1532 1533 1535 1537 1538 1539 1541
1488 1490 1495 1493 1492 1489 1473 1472 1473 1472 1468 1462 1456 1459 1462 1463 1466 1470 1473 1477 1479 1481 1485 1488 1491 1495 1498 1502 1505 1508 1510 1513 1515 1517 1519 1520 1521 1524 1525 1527 1528 1529 1531 1533 1534 1536 1538 1540 1541
1485 1494 1498 1488 1489 1480 1471 1472 1470 1470 1467 1461 1456 1454 1454 1457 1465 1470 1474 1475 1478 1481 1483 1487 1490 1494 1499 1502 1505 1507 1510 1513 1515 1517 1519 1520 1521 1523 1525 1526 1527 1528 1529 1531 1533 1535 1537 1539 1540
1479 1489 1485 1477 1476 1473 1472 1473 1471 1471 1465 1461 1458 1455 1457 1459 1461 1466 1472 1475 1477 1480 1482 1485 1490 1494 1497 1501 1503 1506 1509 1512 1515 1517 1518 1519 1521 1522 1523 1526 1527 1527 1528 1530 1532 1533 1534 1536 1537
1469 1467 1469 1470 1471 1470 1472 1470 1470 1470 1467 1464 1461 1462 1465 1467 1465 1467 1471 1474 1478 1480 1484 1485 1488 1492 1494 1498 1502 1504 1506 1510 1512 1515 1517 1519 1520 1521 1522 1523 1525 1527 1528 1530 1532 1532 1533 1535 1536
1468 1462 1465 1466 1470 1470 1469 1467 1464 1465 1463 1464 1465 1464 1465 1467 1466 1467 1469 1473 1477 1479 1482 1485 1487 1489 1493 1497 1499 1503 1505 1509 1511 1514 1515 1517 1519 1519 1521 1522 1522 1525 1526 1528 1530 1532 1532 1533 1533
1461 1460 1460 1464 1467 1467 1464 1464 1465 1458 1459 1460 1462 1463 1464 1464 1464 1467 1469 1471 1474 1476 1478 1482 1484 1487 1492 1495 1493 1494 1498 1505 1508 1512 1515 1518 1518 1516 1517 1519 1521 1525 1525 1527 1528 1529 1528 1528 1528
1454 1455 1457 1460 1461 1462 1463 1455 1460 1455 1455 1456 1456 1458 1462 1463 1462 1463 1466 1468 1470 1474 1475 1479 1481 1482 1488 1491 1492 1492 1494 1496 1502 1509 1514 1514 1517 1517 1516 1516 1519 1523 1526 1525 1525 1526 1526 1526 1525
1453 1457 1453 1453 1455 1456 1460 1452 1450 1453 1451 1452 1452 1453 1455 1459 1459 1459 1461 1464 1466 1470 1473 1474 1477 1480 1483 1488 1489 1490 1494 1498 1501 1507 1511 1512 1515 1517 1515 1515 1517 1521 1523 1524 1525 1525 1525 1525 1524
1449 1452 1457 1446 1448 1448 1455 1445 1442 1447 1446 1446 1447 1449 1451 1453 1454 1455 1457 1459 1463 1467 1469 1472 1475 1478 1479 1482 1485 1490 1495 1497 1500 1506 1510 1510 1513 1515 1514 1514 1515 1518 1522 1522 1522 1523 1523 1521 1520
1454 1457 1452 1449 1442 1445 1447 1441 1436 1440 1439 1440 1442 1444 1446 1448 1451 1451 1453 1455 1459 1463 1465 1468 1472 1476 1478 1481 1484 1488 1493 1497 1500 1504 1507 1510 1511 1513 1514 1513 1515 1516 1517 1518 1519 1520 1521 1520 1518
1449 1453 1445 1447 1438 1441 1439 1442 1434 1433 1434 1436 1437 1437 1440 1443 1444 1446 1448 1451 1456 1460 1463 1465 1467 1471 1475 1481 1483 1486 1491 1494 1499 1502 1506 1507 1509 1511 1509 1512 1513 1513 1513 1514 1517 1517 1518 1518 1516
1435 1438 1439 1438 1433 1436 1438 1437 1433 1429 1428 1429 1431 1431 1433 1436 1439 1440 1443 1448 1452 1457 1460 1462 1465 1469 1473 1478 1481 1485 1489 1494 1495 1499 1502 1504 1507 1507 1507 1509 1509 1510 1511 1512 1513 1513 1514 1513 1512
1433 1437 1438 1434 1430 1435 1434 1434 1429 1425 1422 1421 1422 1423 1426 1429 1432 1436 1439 1445 1450 1453 1458 1461 1465 1468 1472 1475 1480 1486 1491 1495 1496 1498 1500 1504 1505 1505 1505 1506 1506 1507 1508 1508 1510 1511 1510 1510 1508
1426 1429 1435 1437 1431 1429 1432 1436 1429 1418 1415 1414 1415 1416 1418 1421 1426 1431 1436 1442 1447 1451 1456 1461 1463 1469 1473 1476 1480 1484 1489 1492 1495 1497 1499 1501 1502 1503 1503 1504 1505 1505 1504 1505 1506 1507 1506 1507 1504
1421 1420 1427 1432 1438 1452 1432 1456 1431 1420 1412 1409 1408 1410 1412 1414 1421 1428 1432 1438 1444 1452 1456 1459 1464 1468 1474 1476 1480 1484 1486 1488 1491 1493 1495 1498 1499 1500 1501 1502 1503 1502 1502 1503 1504 1503 1502 1502 1500
1406 1410 1420 1426 1434 1437 1435 1446 1431 1419 1413 1408 1409 1406 1410 1413 1416 1422 1428 1433 1442 1447 1453 1460 1464 1468 1474 1475 1480 1482 1484 1485 1487 1490 1492 1496 1497 1499 1500 1500 1500 1500 1501 1501 1501 1500 1498 1497 1496
1400 1410 1418 1423 1439 1450 1430 1440 1435 1423 1413 1408 1410 1412 1412 1413 1420 1425 1429 1434 1441 1447 1454 1460 1466 1468 1473 1478 1478 1480 1483 1484 1485 1488 1492 1494 1496 1498 1497 1498 1498 1499 1498 1497 1497 1496 1495 1492 1491
1397 1411 1442 1450 1453 1435 1422 1436 1427 1410 1405 1401 1408 1414 1414 1417 1422 1429 1433 1440 1445 1449 1452 1459 1463 1467 1471 1474 1476 1479 1481 1483 1486 1488 1490 1492 1494 1494 1494 1496 1496 1495 1495 1494 1492 1491 1488 1486 1485
1395 1404 1429 1438 1442 1432 1418 1430 1416 1402 1400 1401 1405 1411 1415 1418 1421 1431 1432 1446 1446 1454 1457 1458 1464 1465 1470 1472 1475 1478 1480 1483 1486 1487 1488 1491 1492 1492 1494 1494 1493 1493 1491 1489 1487 1483 1481 1479 1477
1388 1398 1395 1416 1418 1427 1419 1412 1402 1405 1407 1406 1409 1415 1420 1421 1426 1428 1435 1440 1450 1449 1463 1461 1466 1469 1472 1475 1477 1481 1482 1485 1485 1486 1487 1489 1490 1491 1492 1491 1489 1487 1485 1483 1479 1476 1475 1472 1470
1373 1382 1406 1412 1429 1430 1421 1411 1412 1412 1413 1413 1414 1418 1422 1424 1431 1435 1441 1448 1453 1453 1462 1469 1469 1472 1475 1477 1479 1481 1483 1485 1486 1486 1486 1487 1488 1488 1487 1486 1484 1482 1480 1477 1474 1471 1468 1464 1463
1373 1380 1385 1395 1410 1422 1429 1421 1407 1409 1411 1411 1417 1420 1424 1429 1431 1439 1445 1451 1457 1455 1460 1471 1473 1476 1477 1478 1480 1482 1483 1484 1485 1485 1484 1484 1485 1484 1484 1482 1481 1478 1475 1472 1469 1466 1462 1459 1457
1362 1371 1378 1401 1410 1410 1411 1422 1410 1412 1413 1413 1418 1424 1428 1433 1439 1443 1449 1453 1457 1453 1460 1473 1474 1477 1479 1480 1480 1482 1483 1483 1483 1483 1483 1482 1482 1482 1481 1480 1477 1474 1471 1469 1465 1461 1459 1455 1453